DW7110 Weather Reports


time (UTC)temp
C
wind
direction
speed
KPH
gust
KPH
rain 1hr
cm
rain 24hr
cm
rain mn
cm
humidity
%
barometer
mb
20260505193022 20 1 0.0 16.1 0.00 0.00 0.00 46 1015.3
20260505191522 21 1 3.2 25.7 0.00 0.00 0.00 45 1015.5
20260505190027 21 1 3.2 14.5 0.00 0.00 0.00 47 1015.7
20260505184520 21 1 3.2 12.9 0.00 0.00 0.00 48 1015.8
20260505183018 21 1 3.2 20.9 0.00 0.00 0.00 47 1015.9
20260505181519 21 1 9.7 22.5 0.00 0.00 0.00 44 1015.8
20260505180017 21 1 4.8 14.5 0.00 0.00 0.00 46 1015.9
20260505174517 22 1 3.2 12.9 0.00 0.00 0.00 46 1016.0
20260505173014 22 1 1.6 9.7 0.00 0.00 0.00 50 1016.4
20260505171513 21 1 1.6 14.5 0.00 0.00 0.00 52 1016.7
20260505170018 21 1 6.4 12.9 0.00 0.00 0.00 45 1016.8
20260505164511 21 1 0.0 16.1 0.00 0.00 0.00 49 1016.8
20260505163010 21 1 1.6 17.7 0.00 0.00 0.00 52 1016.6
20260505161503 20 1 4.8 11.3 0.00 0.00 0.00 53 1016.6
20260505153055 18 1 1.6 9.7 0.00 0.00 0.00 54 1017.1
20260505151559 17 1 1.6 6.4 0.00 0.00 0.00 55 1017.4
20260505124532 11 1 0.0 1.6 0.00 0.00 0.00 80 1017.4
20260505123031 10 1 0.0 0.0 0.00 0.00 0.00 80 1017.3
20260505121533 10 1 0.0 0.0 0.00 0.00 0.00 79 1017.4
20260505120054 10 1 0.0 3.2 0.00 0.00 0.00 80 1017.1
20260505114528 10 1 0.0 0.0 0.00 0.00 0.00 80 1017.1
20260505113027 10 1 0.0 0.0 0.00 0.00 0.00 76 1016.8
20260505111527 10 1 0.0 0.0 0.00 0.00 0.00 76 1016.7
20260505101524 10 1 0.0 0.0 0.00 0.00 0.00 77 1016.7
20260505100023 10 1 0.0 0.0 0.00 0.00 0.00 77 1016.8
20260505094518 10 1 0.0 0.0 0.00 0.00 0.00 76 1016.8
20260505093016 10 1 0.0 0.0 0.00 0.00 0.00 75 1016.7
20260505091523 11 1 0.0 0.0 0.00 0.00 0.00 74 1016.8
20260505090026 11 1 0.0 0.0 0.00 0.00 0.00 73 1016.8
20260505084509 11 1 0.0 0.0 0.00 0.00 0.00 72 1016.8
20260505083007 11 1 0.0 0.0 0.00 0.00 0.00 72 1016.8
20260505081510 12 1 0.0 0.0 0.00 0.00 0.00 69 1016.8
20260505080003 12 1 0.0 1.6 0.00 0.00 0.00 68 1016.5
20260505074502 12 1 0.0 14.5 0.00 0.00 0.00 68 1016.5
20260505073112 12 1 0.0 4.8 0.00 0.00 0.00 69 1016.5
20260505071600 13 1 0.0 6.4 0.00 0.00 0.00 67 1016.5
20260505070055 13 1 0.0 9.7 0.00 0.00 0.00 64 1016.6
20260505064551 13 1 0.0 4.8 0.00 0.00 0.00 62 1016.7
20260505063050 13 1 1.6 9.7 0.00 0.00 0.00 62 1016.7
20260505061553 13 1 0.0 8.0 0.00 0.00 0.00 62 1016.9
20260505060046 14 1 0.0 9.7 0.00 0.00 0.00 62 1017.0
20260505054606 14 1 0.0 6.4 0.00 0.00 0.00 63 1017.1
20260505053054 15 1 1.6 6.4 0.00 0.00 0.00 61 1017.0
20260505051540 15 1 0.0 8.0 0.00 0.00 0.00 60 1017.0
20260505041534 15 1 3.2 8.0 0.00 0.00 0.00 59 1017.1
20260505040032 15 1 0.0 6.4 0.00 0.00 0.00 60 1017.1
20260505034532 15 1 1.6 12.9 0.00 0.00 0.00 60 1017.3
20260505033033 15 1 1.6 8.0 0.00 0.00 0.00 59 1017.4
20260505031542 15 1 0.0 4.8 0.00 0.00 0.00 60 1017.5
20260505030031 15 1 0.0 4.8 0.00 0.00 0.00 59 1017.4
20260505024535 15 1 0.0 3.2 0.00 0.00 0.00 59 1017.5
20260505023030 16 1 0.0 8.0 0.00 0.00 0.00 60 1017.5
20260505021529 16 1 0.0 8.0 0.00 0.00 0.00 58 1017.4
20260505020032 16 1 0.0 6.4 0.00 0.00 0.00 59 1017.4
20260505014535 16 1 1.6 8.0 0.00 0.00 0.00 58 1017.2
20260505013027 16 1 0.0 6.4 0.00 0.00 0.00 59 1017.0
20260505011533 17 1 0.0 4.8 0.00 0.00 0.00 59 1017.0
20260505010026 17 1 0.0 6.4 0.00 0.00 0.00 59 1016.9
20260505004542 17 1 1.6 9.7 0.00 0.00 0.00 58 1016.6
20260505003024 17 1 1.6 17.7 0.00 0.00 0.00 57 1016.4
20260505001524 18 1 1.6 9.7 0.00 0.00 0.00 56 1016.3
20260505000035 18 1 3.2 20.9 0.00 0.00 0.00 55 1016.2
20260504234524 18 1 3.2 9.7 0.00 0.00 0.00 53 1016.1
20260504233021 19 1 3.2 12.9 0.00 0.00 0.00 52 1016.1
20260504231518 20 1 3.2 8.0 0.00 0.00 0.00 51 1016.0
20260504230017 21 1 3.2 8.0 0.00 0.00 0.00 50 1015.9
20260504224516 21 1 3.2 8.0 0.00 0.00 0.00 49 1015.8
20260504223015 21 1 3.2 14.5 0.00 0.00 0.00 45 1015.9
20260504221515 22 1 3.2 14.5 0.00 0.00 0.00 44 1015.9
20260504220015 22 1 1.6 8.0 0.00 0.00 0.00 43 1015.7
20260504214513 22 1 1.6 9.7 0.00 0.00 0.00 39 1015.8
20260504213012 22 1 3.2 12.9 0.00 0.00 0.00 36 1015.7
20260504211511 22 1 3.2 11.3 0.00 0.00 0.00 35 1015.5
20260504210011 22 1 1.6 8.0 0.00 0.00 0.00 37 1015.7
20260504204509 22 1 1.6 8.0 0.00 0.00 0.00 42 1015.6
20260504203008 22 1 3.2 11.3 0.00 0.00 0.00 39 1015.7
20260504201506 22 1 4.8 16.1 0.00 0.00 0.00 39 1015.9
20260504200004 22 1 1.6 9.7 0.00 0.00 0.00 41 1016.2
20260504194503 22 1 1.6 6.4 0.00 0.00 0.00 41 1016.5